Theta_e
325 329 329 329 329 329 329 328 328 328 328 330 330 329 324 316 312 310 311 311 311 308 304 303 303 304 306
325 327 328 329 329 329 330 329 328 329 328 329 330 330 330 323 317 310 309 309 308 304 303 303 304 306 307
322 323 326 328 330 332 332 331 330 330 328 329 328 330 330 330 324 321 310 307 306 304 303 303 305 306 306
321 323 325 328 331 332 332 332 331 331 330 332 332 330 331 331 330 327 323 309 305 303 302 303 305 305 305
317 319 321 326 327 331 332 332 332 330 330 329 329 329 330 329 330 329 327 319 306 303 302 303 304 305 305
316 317 319 321 323 326 332 331 330 330 331 329 329 327 328 328 327 329 326 325 314 305 302 302 304 304 305
316 317 320 322 323 325 330 331 332 330 329 328 326 327 327 326 326 325 324 323 323 311 304 302 302 304 304
315 317 321 325 326 327 328 329 329 328 328 328 327 325 324 327 326 324 323 324 322 321 311 305 302 302 303
314 317 323 326 328 329 327 329 330 327 326 326 327 325 325 324 323 322 325 323 322 322 319 312 306 303 302
315 318 324 328 329 327 326 326 325 328 328 327 327 328 327 324 323 322 322 321 321 320 319 320 314 308 304
318 320 324 327 326 325 326 325 324 324 324 325 325 325 326 326 325 323 323 323 324 321 319 317 317 313 309
321 324 327 326 323 322 322 322 321 321 321 322 323 323 323 323 322 322 320 320 319 318 317 316 315 315 314
318 320 323 324 319 318 317 317 317 316 317 318 318 318 318 318 318 317 316 316 316 315 315 314 314 314 314
312 314 318 320 318 316 316 315 315 314 315 315 315 315 315 315 315 314 313 313 313 312 311 311 310 310 310
308 309 311 313 314 314 312 310 308 308 310 310 309 309 310 311 311 310 310 309 309 309 309 307 305 303 306
305 305 305 305 305 304 304 303 303 303 303 302 302 302 302 302 304 306 307 306 305 306 306 306 304 302 300
Wind_Speed
15 19 20 19 17 15 13 12 11 10 10 7 6 7 8 9 10 11 7 7 8 8 6 4 3 3 4
13 17 19 20 19 18 16 14 12 12 13 10 10 9 10 10 11 11 8 8 7 7 6 4 4 5 5
12 14 16 19 19 18 16 15 14 15 16 15 12 11 11 12 11 12 11 10 9 7 7 6 6 6 7
12 13 14 16 17 17 16 15 16 15 16 15 14 13 13 13 13 13 12 10 10 10 9 8 7 7 7
12 11 11 14 15 16 17 19 18 17 17 15 16 17 16 14 14 15 13 11 11 12 12 11 10 9 9
15 13 11 10 11 15 18 19 19 19 18 17 17 17 18 18 17 16 16 13 13 13 13 14 13 12 11
18 16 14 10 9 9 11 18 19 18 18 17 16 18 19 18 19 18 17 15 15 15 15 16 16 15 14
15 17 14 11 7 4 3 5 9 14 17 18 19 16 17 18 18 19 18 19 17 16 16 17 18 18 17
8 13 12 10 7 4 3 3 5 6 9 11 14 16 15 15 18 20 20 19 18 17 16 17 19 20 20
3 9 10 8 6 7 7 7 8 8 10 12 14 13 15 17 16 17 18 19 19 18 19 20 21 21 22
8 8 8 8 6 6 5 5 6 8 8 8 10 11 11 12 14 17 18 18 18 16 19 20 21 22 23
11 10 10 11 8 3 1 2 3 5 8 9 9 9 9 10 12 9 10 11 12 14 17 22 22 22 23
10 11 13 10 9 5 4 2 2 4 6 8 8 9 10 10 10 11 13 14 15 16 19 23 25 27 28
11 12 11 11 9 6 4 2 2 4 6 6 7 8 9 9 10 12 17 19 18 18 18 22 20 23 16
17 15 13 11 10 6 5 5 5 5 5 7 8 9 10 10 10 11 12 14 16 17 18 14 8 8 26
20 17 15 15 12 13 11 11 9 8 7 7 8 9 10 10 10 10 11 12 13 14 15 15 15 19 20
Wind_Direction
239 240 244 248 251 254 254 252 254 265 274 275 282 301 318 323 328 332 320 309 307 306 303 298 300 308 317
248 246 244 246 250 250 250 248 248 258 266 264 270 284 299 314 328 332 326 310 305 298 292 296 304 311 315
255 254 251 248 248 249 249 250 251 252 259 264 261 271 284 296 309 325 326 315 305 288 279 282 289 299 307
253 248 250 250 246 246 251 252 247 251 265 265 263 271 275 283 293 303 315 314 300 287 273 269 274 284 293
251 256 252 252 251 244 242 244 245 250 255 264 265 270 273 282 288 291 299 305 294 286 277 275 275 279 283
241 239 246 250 254 251 243 247 250 251 258 265 264 269 273 282 288 295 292 295 293 279 272 273 275 277 279
237 233 234 245 260 277 249 246 246 253 258 259 270 275 276 278 284 294 307 303 292 288 279 272 271 272 273
238 233 229 238 252 281 302 255 251 249 254 262 266 283 277 281 282 289 295 297 298 292 288 283 280 279 278
242 223 220 224 234 247 264 267 265 248 249 255 266 276 281 280 285 287 286 296 295 303 300 288 279 277 278
186 188 194 203 203 228 244 246 255 254 250 252 258 263 271 269 278 281 292 295 292 295 301 305 294 283 276
109 137 163 166 187 225 229 248 260 270 286 286 281 275 284 283 272 271 266 271 272 283 293 296 298 293 288
107 117 130 139 139 173 229 281 295 290 275 265 277 284 282 284 284 305 297 289 296 299 295 291 295 296 290
110 118 122 132 128 129 119 101 336 321 300 296 290 289 297 300 298 299 302 302 297 297 297 297 286 287 291
115 113 115 121 128 114 100 58 348 314 310 304 297 297 298 308 307 310 309 307 306 307 308 306 311 300 303
84 89 95 98 96 88 65 45 35 12 337 325 324 315 307 300 296 294 290 293 299 300 304 310 320 300 302
74 73 82 83 77 65 54 48 44 36 22 10 359 349 342 334 316 306 298 299 300 303 301 302 299 299 310